| time (UTC) | temp F | wind direction | speed MPH | gust MPH | rain 1hr in | rain 24hr in | rain mn in | humidity % | barometer mb |
| 20260905104558 | 52 | 0 | 0.0 | 0.0 | 0.00 | 0.00 | 0.00 | 91 | 1014.3 |
| 20260905103104 | 53 | 0 | 0.0 | 0.0 | 0.00 | 0.00 | 0.00 | 91 | 1014.3 |
| 20260905101602 | 53 | 0 | 0.0 | 0.0 | 0.00 | 0.00 | 0.00 | 91 | 1014.3 |
| 20260905100107 | 53 | 0 | 0.0 | 0.0 | 0.00 | 0.00 | 0.00 | 91 | 1014.3 |
| 20260905094609 | 53 | 0 | 0.0 | 0.0 | 0.00 | 0.00 | 0.00 | 91 | 1014.5 |
| 20260905093102 | 54 | 0 | 0.0 | 0.0 | 0.00 | 0.00 | 0.00 | 91 | 1014.6 |
| 20260905091609 | 54 | 0 | 0.0 | 0.0 | 0.00 | 0.00 | 0.00 | 90 | 1014.6 |
| 20260905090058 | 54 | 0 | 0.0 | 0.0 | 0.00 | 0.00 | 0.00 | 90 | 1014.6 |
| 20260905084604 | 55 | 0 | 0.0 | 0.0 | 0.00 | 0.00 | 0.00 | 90 | 1014.6 |
| 20260905083102 | 55 | 0 | 0.0 | 0.0 | 0.00 | 0.00 | 0.00 | 90 | 1014.6 |
| 20260905081620 | 55 | 0 | 0.0 | 0.0 | 0.00 | 0.00 | 0.00 | 90 | 1014.7 |
| 20260905080105 | 56 | 0 | 0.0 | 0.0 | 0.00 | 0.00 | 0.00 | 89 | 1014.6 |
| 20260905074603 | 56 | 0 | 0.0 | 0.0 | 0.00 | 0.00 | 0.00 | 89 | 1014.7 |
| 20260905073105 | 57 | 0 | 0.0 | 0.0 | 0.00 | 0.00 | 0.00 | 89 | 1014.7 |
| 20260905071603 | 57 | 0 | 0.0 | 0.0 | 0.00 | 0.00 | 0.00 | 88 | 1014.6 |
| 20260905070105 | 58 | 0 | 0.0 | 0.0 | 0.00 | 0.00 | 0.00 | 88 | 1014.6 |
| 20260905064604 | 58 | 0 | 0.0 | 0.0 | 0.00 | 0.00 | 0.00 | 87 | 1014.6 |
| 20260905063118 | 58 | 0 | 0.0 | 0.0 | 0.00 | 0.00 | 0.00 | 87 | 1014.5 |
| 20260905061613 | 59 | 0 | 0.0 | 0.0 | 0.00 | 0.00 | 0.00 | 86 | 1014.5 |
| 20260905060106 | 59 | 0 | 0.0 | 2.0 | 0.00 | 0.00 | 0.00 | 86 | 1014.5 |
| 20260905054604 | 59 | 0 | 0.0 | 3.0 | 0.00 | 0.00 | 0.00 | 85 | 1014.6 |
| 20260905053104 | 60 | 0 | 1.0 | 3.0 | 0.00 | 0.00 | 0.00 | 85 | 1014.7 |
| 20260905051603 | 60 | 0 | 0.0 | 3.0 | 0.00 | 0.00 | 0.00 | 84 | 1014.7 |
| 20260905050106 | 60 | 189 | 0.0 | 3.0 | 0.00 | 0.00 | 0.00 | 83 | 1014.7 |
| 20260905044603 | 61 | 0 | 0.0 | 4.0 | 0.00 | 0.00 | 0.00 | 82 | 1014.7 |
| 20260905043132 | 61 | 192 | 1.0 | 4.0 | 0.00 | 0.00 | 0.00 | 81 | 1014.6 |
| 20260905041604 | 61 | 0 | 1.0 | 4.0 | 0.00 | 0.00 | 0.00 | 80 | 1014.5 |
| 20260905040122 | 62 | 163 | 1.0 | 5.0 | 0.00 | 0.00 | 0.00 | 78 | 1014.5 |
| 20260905034601 | 62 | 153 | 2.0 | 5.0 | 0.00 | 0.00 | 0.00 | 76 | 1014.3 |
| 20260905033102 | 63 | 192 | 1.0 | 5.0 | 0.00 | 0.00 | 0.00 | 74 | 1014.2 |
| 20260905031601 | 64 | 192 | 0.0 | 4.0 | 0.00 | 0.00 | 0.00 | 71 | 1014.1 |
| 20260905030101 | 64 | 236 | 0.0 | 3.0 | 0.00 | 0.00 | 0.00 | 68 | 1014.0 |
| 20260905024601 | 65 | 205 | 1.0 | 4.0 | 0.00 | 0.00 | 0.00 | 67 | 1014.0 |
| 20260905023105 | 66 | 217 | 2.0 | 5.0 | 0.00 | 0.00 | 0.00 | 65 | 1014.0 |
| 20260905021602 | 67 | 201 | 4.0 | 9.0 | 0.00 | 0.00 | 0.00 | 64 | 1013.9 |
| 20260905014604 | 69 | 295 | 4.0 | 11.0 | 0.00 | 0.00 | 0.00 | 60 | 1013.9 |
| 20260905013103 | 69 | 275 | 5.0 | 11.0 | 0.00 | 0.00 | 0.00 | 57 | 1013.8 |
| 20260905011559 | 70 | 278 | 4.0 | 12.0 | 0.00 | 0.00 | 0.00 | 56 | 1013.8 |
| 20260905010108 | 71 | 321 | 4.0 | 11.0 | 0.00 | 0.00 | 0.00 | 56 | 1013.6 |
| 20260905004616 | 71 | 257 | 7.0 | 13.0 | 0.00 | 0.01 | 0.00 | 56 | 1013.6 |
| 20260905003103 | 71 | 315 | 6.0 | 14.0 | 0.00 | 0.01 | 0.00 | 54 | 1013.6 |
| 20260905001612 | 72 | 248 | 7.0 | 14.0 | 0.00 | 0.01 | 0.00 | 54 | 1013.5 |
| 20260905000106 | 73 | 273 | 7.0 | 14.0 | 0.00 | 0.01 | 0.00 | 53 | 1013.5 |
| 20260904234605 | 73 | 244 | 6.0 | 15.0 | 0.00 | 0.03 | 0.00 | 54 | 1013.4 |
| 20260904233107 | 73 | 263 | 7.0 | 15.0 | 0.00 | 0.03 | 0.00 | 52 | 1013.3 |
| 20260904231602 | 74 | 278 | 7.0 | 16.0 | 0.00 | 0.03 | 0.00 | 52 | 1013.2 |
| 20260904230109 | 74 | 286 | 7.0 | 13.0 | 0.00 | 0.03 | 0.00 | 53 | 1013.4 |
| 20260904224602 | 74 | 236 | 8.0 | 15.0 | 0.00 | 0.03 | 0.00 | 52 | 1013.4 |
| 20260904223109 | 74 | 261 | 7.0 | 15.0 | 0.00 | 0.03 | 0.00 | 53 | 1013.5 |
| 20260904221602 | 74 | 251 | 9.0 | 13.0 | 0.00 | 0.03 | 0.00 | 54 | 1013.5 |
| 20260904220116 | 74 | 276 | 7.0 | 13.0 | 0.00 | 0.03 | 0.00 | 54 | 1013.6 |
| 20260904214605 | 74 | 306 | 7.0 | 14.0 | 0.00 | 0.03 | 0.00 | 53 | 1013.7 |
| 20260904213106 | 74 | 231 | 5.0 | 12.0 | 0.00 | 0.03 | 0.00 | 54 | 1013.7 |
| 20260904211613 | 73 | 254 | 5.0 | 12.0 | 0.00 | 0.03 | 0.00 | 56 | 1013.7 |
| 20260904210104 | 74 | 282 | 4.0 | 12.0 | 0.00 | 0.03 | 0.00 | 55 | 1013.7 |
| 20260904204606 | 73 | 247 | 3.0 | 11.0 | 0.00 | 0.03 | 0.00 | 56 | 1013.6 |
| 20260904203106 | 74 | 292 | 4.0 | 9.0 | 0.00 | 0.03 | 0.00 | 52 | 1013.7 |
| 20260904201610 | 72 | 0 | 1.0 | 8.0 | 0.00 | 0.03 | 0.00 | 55 | 1013.6 |
| 20260904200120 | 72 | 242 | 4.0 | 10.0 | 0.00 | 0.03 | 0.00 | 54 | 1013.8 |
| 20260904194617 | 72 | 246 | 3.0 | 7.0 | 0.00 | 0.03 | 0.00 | 56 | 1013.9 |
| 20260904193111 | 71 | 355 | 2.0 | 9.0 | 0.00 | 0.03 | 0.00 | 61 | 1014.1 |
| 20260904191601 | 70 | 252 | 1.0 | 9.0 | 0.00 | 0.03 | 0.00 | 61 | 1014.2 |
| 20260904184623 | 69 | 0 | 0.0 | 4.0 | 0.00 | 0.05 | 0.00 | 68 | 1014.4 |
| 20260904183120 | 67 | 175 | 1.0 | 8.0 | 0.00 | 0.05 | 0.00 | 70 | 1014.4 |
| 20260904181605 | 66 | 218 | 3.0 | 8.0 | 0.00 | 0.05 | 0.00 | 73 | 1014.5 |
| 20260904180122 | 66 | 329 | 1.0 | 4.0 | 0.00 | 0.05 | 0.00 | 75 | 1014.5 |
| 20260904174610 | 65 | 248 | 1.0 | 4.0 | 0.00 | 0.09 | 0.00 | 79 | 1014.4 |
| 20260904173104 | 61 | 281 | 2.0 | 6.0 | 0.00 | 0.09 | 0.00 | 90 | 1014.4 |
| 20260904171603 | 59 | 312 | 0.0 | 3.0 | 0.00 | 0.09 | 0.00 | 94 | 1014.3 |
| 20260904170100 | 58 | 265 | 2.0 | 5.0 | 0.00 | 0.09 | 0.00 | 95 | 1014.3 |
| 20260904164600 | 57 | 0 | 0.0 | 0.0 | 0.00 | 0.12 | 0.00 | 95 | 1014.3 |
| 20260904163105 | 56 | 340 | 1.0 | 4.0 | 0.00 | 0.12 | 0.00 | 95 | 1014.3 |
| 20260904161633 | 55 | 0 | 0.0 | 3.0 | 0.00 | 0.12 | 0.00 | 95 | 1014.3 |
| 20260904154601 | 54 | 0 | 0.0 | 2.0 | 0.00 | 0.18 | 0.00 | 95 | 1014.3 |
| 20260904153103 | 54 | 360 | 0.0 | 3.0 | 0.00 | 0.18 | 0.00 | 95 | 1014.2 |
| 20260904151605 | 54 | 0 | 0.0 | 0.0 | 0.00 | 0.18 | 0.00 | 95 | 1014.2 |
| 20260904150104 | 54 | 0 | 0.0 | 4.0 | 0.00 | 0.18 | 0.00 | 95 | 1014.1 |
| 20260904144608 | 54 | 297 | 0.0 | 3.0 | 0.00 | 0.18 | 0.00 | 95 | 1013.9 |
| 20260904143102 | 55 | 0 | 0.0 | 2.0 | 0.00 | 0.18 | 0.00 | 95 | 1013.7 |
| 20260904141601 | 55 | 0 | 1.0 | 3.0 | 0.00 | 0.18 | 0.00 | 94 | 1013.6 |
| 20260904140104 | 54 | 294 | 0.0 | 2.0 | 0.00 | 0.18 | 0.00 | 94 | 1013.4 |
| 20260904134616 | 54 | 0 | 1.0 | 2.0 | 0.00 | 0.18 | 0.00 | 94 | 1013.3 |
| 20260904133118 | 54 | 0 | 0.0 | 2.0 | 0.00 | 0.18 | 0.00 | 94 | 1013.1 |
| 20260904131605 | 54 | 0 | 0.0 | 1.0 | 0.00 | 0.18 | 0.00 | 94 | 1013.0 |
| 20260904130107 | 54 | 217 | 0.0 | 3.0 | 0.00 | 0.18 | 0.00 | 94 | 1012.9 |
| 20260904124610 | 54 | 0 | 0.0 | 3.0 | 0.00 | 0.19 | 0.00 | 94 | 1012.8 |
| 20260904123122 | 55 | 0 | 0.0 | 0.0 | 0.00 | 0.19 | 0.00 | 94 | 1012.6 |
| 20260904121620 | 55 | 0 | 0.0 | 0.0 | 0.00 | 0.19 | 0.00 | 94 | 1012.5 |
| 20260904120111 | 55 | 0 | 0.0 | 2.0 | 0.00 | 0.19 | 0.00 | 94 | 1012.6 |
| 20260904114605 | 55 | 97 | 0.0 | 0.0 | 0.00 | 0.19 | 0.00 | 94 | 1012.5 |
| 20260904113107 | 55 | 0 | 0.0 | 0.0 | 0.00 | 0.19 | 0.00 | 93 | 1012.5 |
| 20260904111616 | 55 | 0 | 0.0 | 0.0 | 0.00 | 0.19 | 0.00 | 94 | 1012.5 |